User: anonymous   Login
Location: Morlupo
(42.1333°N, 12.5000°E)
Time: 23:28:34
(UTC+00:00)
Language:

NOSS 3-2 (C) - Orbit

View from above orbital plane
View from above orbital plane
View from above satellite
View from above satellite

Ground track
Ground track

The orbit data is extracted from the following two-line orbital elements,

1 28097U 03054C   21101.79504141 0.00000000  00000-0  00000-0 0    07
2 28097  63.4154 355.9548 0431518 359.7462   0.2538 13.40775956    03
Epoch (UTC): 11 April 2021 19:04:51
Eccentricity: 0.0431518
inclination: 63.4154°
perigee height: 783 km
apogee height: 1429 km
right ascension of ascending node: 355.9548°
argument of perigee: 359.7462°
revolutions per day: 13.40775956
mean anomaly at epoch: 0.2538°
orbit number at epoch: 0

The dashed part of the orbit path shows where the satellite is in the earth's shadow,  

DLR